EW7146 Weather Reports


Display with metric or nautical units.
time (UTC)temp
F
wind
direction
speed
MPH
gust
MPH
rain 1hr
in
rain 24hr
in
rain mn
in
humidity
%
barometer
mb
20260902204529 73 114 7.0 16.0 0.00 0.00 0.00 41 1016.5
20260902204033 73 61 9.0 16.0 0.00 0.00 0.00 42 1016.4
20260902203528 72 102 7.0 15.0 0.00 0.00 0.00 42 1016.4
20260902203029 71 79 6.0 16.0 0.00 0.00 0.00 44 1016.4
20260902202525 71 69 7.0 18.0 0.00 0.00 0.00 45 1016.7
20260902202025 71 114 12.0 18.0 0.00 0.00 0.00 44 1016.8
20260902201529 71 123 9.0 15.0 0.00 0.00 0.00 44 1016.7
20260902201028 70 107 8.0 16.0 0.00 0.00 0.00 46 1016.8
20260902200531 69 68 8.0 16.0 0.00 0.00 0.00 48 1016.8
20260902200028 69 45 3.0 16.0 0.00 0.00 0.00 47 1016.8
20260902195528 69 142 9.0 19.0 0.00 0.00 0.00 47 1017.0
20260902195028 68 138 8.0 19.0 0.00 0.00 0.00 47 1017.1
20260902194524 68 75 8.0 16.0 0.00 0.00 0.00 47 1017.2
20260902194253 68 134 9.0 16.0 0.00 0.00 0.00 48 1017.2
20260902193748 68 73 6.0 16.0 0.00 0.00 0.00 48 1017.2
20260902193025 68 157 6.0 15.0 0.00 0.00 0.00 49 1017.2
20260902192527 68 140 6.0 16.0 0.00 0.00 0.00 49 1017.3
20260902192029 68 79 7.0 16.0 0.00 0.00 0.00 49 1017.3
20260902191527 68 154 7.0 15.0 0.00 0.00 0.00 49 1017.3
20260902191027 68 78 5.0 17.0 0.00 0.00 0.00 50 1017.4
20260902190527 68 124 8.0 17.0 0.00 0.00 0.00 50 1017.4
20260902190023 68 32 7.0 13.0 0.00 0.00 0.00 49 1017.4
20260902185523 68 69 6.0 12.0 0.00 0.00 0.00 49 1017.4
20260902185023 68 127 7.0 12.0 0.00 0.00 0.00 49 1017.4
20260902184524 68 121 3.0 12.0 0.00 0.00 0.00 50 1017.3
20260902184026 68 79 4.0 13.0 0.00 0.00 0.00 50 1017.4
20260902183750 67 135 8.0 13.0 0.00 0.00 0.00 50 1017.5
20260902183026 67 96 5.0 11.0 0.00 0.00 0.00 53 1017.5
20260902182525 67 97 4.0 13.0 0.00 0.00 0.00 56 1017.5
20260902182026 67 200 7.0 13.0 0.00 0.00 0.00 55 1017.4
20260902181526 67 120 6.0 10.0 0.00 0.00 0.00 57 1017.6
20260902181026 67 110 4.0 10.0 0.00 0.00 0.00 58 1017.7
20260902180751 66 135 5.0 9.0 0.00 0.00 0.00 59 1017.7
20260902180024 65 107 2.0 7.0 0.00 0.00 0.00 63 1017.6
20260902175525 65 76 2.0 6.0 0.00 0.00 0.00 66 1017.6
20260902175026 64 111 3.0 6.0 0.00 0.00 0.00 63 1017.7
20260902174525 64 138 5.0 6.0 0.00 0.00 0.00 64 1017.6
20260902174025 64 80 2.0 4.0 0.00 0.00 0.00 66 1017.5
20260902173526 64 93 2.0 3.0 0.00 0.00 0.00 66 1017.5
20260902173025 64 123 0.0 1.0 0.00 0.00 0.00 65 1017.5
20260902172751 63 149 0.0 1.0 0.00 0.00 0.00 66 1017.4
20260902172240 64 151 1.0 1.0 0.00 0.00 0.00 66 1017.4
20260902171522 63 59 0.0 0.0 0.00 0.00 0.00 67 1017.5
20260902171025 63 144 0.0 2.0 0.00 0.00 0.00 70 1017.6
20260902170525 62 111 0.0 2.0 0.00 0.00 0.00 72 1017.7
20260902170023 61 110 0.0 2.0 0.00 0.00 0.00 74 1017.7
20260902165524 61 71 0.0 4.0 0.00 0.00 0.00 72 1017.4
20260902165024 61 83 2.0 4.0 0.00 0.00 0.00 73 1017.5
20260902164524 61 85 0.0 3.0 0.00 0.00 0.00 73 1017.6
20260902164024 62 78 0.0 3.0 0.00 0.00 0.00 72 1017.6
20260902163743 62 93 2.0 3.0 0.00 0.00 0.00 73 1017.6
20260902163025 61 56 0.0 2.0 0.00 0.00 0.00 74 1017.5
20260902162523 61 31 0.0 2.0 0.00 0.00 0.00 73 1017.4
20260902162023 61 245 0.0 0.0 0.00 0.00 0.00 71 1017.4
20260902161744 62 243 0.0 0.0 0.00 0.00 0.00 73 1017.5
20260902161626 62 243 0.0 0.0 0.00 0.00 0.00 74 1017.5
20260902160525 61 243 0.0 0.0 0.00 0.00 0.00 75 1017.6
20260902160023 60 243 0.0 1.0 0.00 0.00 0.00 77 1017.7
20260902155751 59 61 0.0 1.0 0.00 0.00 0.00 78 1017.6
20260902155022 59 61 0.0 1.0 0.00 0.00 0.00 83 1017.7
20260902154757 58 61 0.0 1.0 0.00 0.00 0.00 82 1017.7
20260902154022 58 61 0.0 0.0 0.00 0.00 0.00 82 1017.8
20260902153522 58 61 0.0 0.0 0.00 0.00 0.00 83 1017.9
20260902153244 58 61 0.0 0.0 0.00 0.00 0.00 82 1017.9
20260902152522 58 61 0.0 1.0 0.00 0.00 0.00 82 1017.9
20260902152023 58 61 0.0 3.0 0.00 0.00 0.00 83 1017.6
20260902151522 58 61 1.0 3.0 0.00 0.00 0.00 84 1017.8
20260902151023 58 199 0.0 1.0 0.00 0.00 0.00 84 1017.8
20260902150522 58 188 0.0 0.0 0.00 0.00 0.00 83 1017.9
20260902150023 57 188 0.0 0.0 0.00 0.00 0.00 85 1017.9
20260902145521 56 182 0.0 0.0 0.00 0.00 0.00 86 1017.9
20260902145242 56 245 0.0 0.0 0.00 0.00 0.00 88 1017.9
20260902144521 55 245 0.0 0.0 0.00 0.00 0.00 88 1018.0
20260902144021 55 245 0.0 0.0 0.00 0.00 0.00 89 1018.3
20260902143521 55 221 0.0 0.0 0.00 0.00 0.00 88 1018.4
20260902143021 55 149 0.0 0.0 0.00 0.00 0.00 87 1018.4
20260902142522 55 148 0.0 0.0 0.00 0.00 0.00 87 1018.0
20260902142021 55 161 0.0 2.0 0.00 0.00 0.00 87 1018.3
20260902141746 55 216 0.0 3.0 0.00 0.00 0.00 87 1018.0
20260902141021 55 183 2.0 3.0 0.00 0.00 0.00 87 1017.9
20260902140750 54 158 0.0 2.0 0.00 0.00 0.00 87 1017.8
20260902140021 54 172 0.0 1.0 0.00 0.00 0.00 88 1017.8
20260902135739 54 235 0.0 1.0 0.00 0.00 0.00 88 1018.0
20260902135021 54 321 0.0 0.0 0.00 0.00 0.00 86 1018.0
20260902134520 55 321 0.0 0.0 0.00 0.00 0.00 85 1018.4
20260902134021 55 173 0.0 0.0 0.00 0.00 0.00 84 1018.3
20260902133520 55 173 0.0 2.0 0.00 0.00 0.00 84 1018.5
20260902133021 55 73 0.0 4.0 0.00 0.00 0.00 83 1018.5
20260902132519 55 62 0.0 4.0 0.00 0.00 0.00 84 1018.5
20260902132020 55 144 2.0 4.0 0.00 0.00 0.00 86 1018.4
20260902131519 55 169 0.0 0.0 0.00 0.00 0.00 86 1017.8
20260902131019 55 252 0.0 2.0 0.00 0.00 0.00 84 1017.5
20260902130518 55 255 0.0 4.0 0.00 0.00 0.00 84 1017.5
20260902130019 55 329 0.0 5.0 0.00 0.00 0.00 83 1017.7
20260902125520 55 133 3.0 5.0 0.00 0.00 0.00 82 1017.8
20260902125018 56 147 2.0 4.0 0.00 0.00 0.00 82 1017.6
20260902124520 56 114 0.0 1.0 0.00 0.00 0.00 79 1017.4
20260902124019 56 117 0.0 0.0 0.00 0.00 0.00 77 1018.0
20260902123737 56 117 0.0 4.0 0.00 0.00 0.00 76 1018.3
20260902123244 56 120 1.0 4.0 0.00 0.00 0.00 72 1018.4
20260902122518 56 158 1.0 3.0 0.00 0.00 0.00 73 1018.3
20260902122019 56 168 1.0 3.0 0.00 0.00 0.00 73 1018.3
20260902121518 56 159 1.0 3.0 0.00 0.00 0.00 74 1017.8
20260902121019 56 219 0.0 3.0 0.00 0.00 0.00 77 1017.8
20260902120518 57 161 2.0 3.0 0.00 0.00 0.00 75 1017.8
20260902120017 57 90 0.0 2.0 0.00 0.00 0.00 76 1017.8
20260902115517 57 87 0.0 3.0 0.00 0.00 0.00 77 1017.7
20260902115017 57 166 2.0 3.0 0.00 0.00 0.00 79 1017.6
20260902114517 57 250 2.0 3.0 0.00 0.00 0.00 77 1017.4
20260902114017 57 120 0.0 0.0 0.00 0.00 0.00 73 1017.4
20260902113518 57 120 0.0 0.0 0.00 0.00 0.00 74 1017.7
20260902113017 57 202 0.0 1.0 0.00 0.00 0.00 73 1017.6
20260902112738 57 196 0.0 1.0 0.00 0.00 0.00 72 1017.6
20260902112017 58 213 0.0 0.0 0.00 0.00 0.00 74 1017.7
20260902111516 58 107 0.0 0.0 0.00 0.00 0.00 77 1017.8
20260902111017 58 199 0.0 2.0 0.00 0.00 0.00 76 1017.8
20260902110517 58 203 0.0 2.0 0.00 0.00 0.00 75 1017.7
20260902110017 58 190 0.0 0.0 0.00 0.00 0.00 79 1017.7
20260902105515 58 292 0.0 0.0 0.00 0.00 0.00 78 1017.7
20260902105017 58 292 0.0 0.0 0.00 0.00 0.00 78 1017.7
20260902104516 58 292 0.0 0.0 0.00 0.00 0.00 77 1017.7
20260902104018 58 292 0.0 0.0 0.00 0.00 0.00 77 1017.7
20260902103516 58 292 0.0 1.0 0.00 0.00 0.00 77 1017.7
20260902103016 58 292 0.0 1.0 0.00 0.00 0.00 76 1017.8
20260902102516 58 292 0.0 1.0 0.00 0.00 0.00 75 1017.9
20260902102015 58 97 0.0 0.0 0.00 0.00 0.00 74 1017.8
20260902101516 58 199 0.0 0.0 0.00 0.00 0.00 73 1017.8
20260902101016 58 199 0.0 0.0 0.00 0.00 0.00 74 1017.9
20260902100515 59 216 0.0 1.0 0.00 0.00 0.00 74 1018.0
20260902100015 59 209 0.0 1.0 0.00 0.00 0.00 74 1018.2
20260902095736 59 162 0.0 0.0 0.00 0.00 0.00 74 1018.2
20260902095014 59 162 0.0 0.0 0.00 0.00 0.00 75 1018.2
20260902094515 59 162 0.0 0.0 0.00 0.00 0.00 76 1018.4
20260902094014 59 162 0.0 0.0 0.00 0.00 0.00 75 1018.4
20260902093514 59 162 0.0 0.0 0.00 0.00 0.00 72 1018.5
20260902093015 60 162 0.0 0.0 0.00 0.00 0.00 71 1018.6
20260902092732 60 162 0.0 0.0 0.00 0.00 0.00 70 1018.6
20260902092015 60 162 0.0 1.0 0.00 0.00 0.00 74 1018.7
20260902091514 60 162 0.0 1.0 0.00 0.00 0.00 74 1018.6
20260902091016 60 68 0.0 0.0 0.00 0.00 0.00 74 1018.8
20260902090513 61 68 0.0 2.0 0.00 0.00 0.00 73 1018.8
20260902090241 61 68 0.0 2.0 0.00 0.00 0.00 73 1018.9
20260902085514 61 93 0.0 0.0 0.00 0.00 0.00 71 1018.9
20260902085013 61 178 0.0 0.0 0.00 0.00 0.00 72 1018.8
20260902084513 61 300 0.0 2.0 0.00 0.00 0.00 72 1018.7
20260902084012 61 290 0.0 2.0 0.00 0.00 0.00 73 1018.8
20260902083514 61 302 0.0 1.0 0.00 0.00 0.00 74 1018.8
20260902083013 61 292 0.0 1.0 0.00 0.00 0.00 74 1018.8
20260902082741 60 23 0.0 0.0 0.00 0.00 0.00 75 1018.8
20260902082013 60 23 0.0 0.0 0.00 0.00 0.00 75 1018.7
20260902081512 61 316 0.0 0.0 0.00 0.00 0.00 75 1018.8
20260902081013 61 316 0.0 0.0 0.00 0.00 0.00 75 1018.7
20260902080737 61 316 0.0 0.0 0.00 0.00 0.00 75 1018.7
20260902080013 60 316 0.0 0.0 0.00 0.00 0.00 75 1018.9
20260902075512 61 316 0.0 0.0 0.00 0.00 0.00 75 1018.8
20260902075013 61 316 0.0 0.0 0.00 0.00 0.00 75 1018.8
20260902074735 61 316 0.0 0.0 0.00 0.00 0.00 74 1018.8
20260902074241 62 316 0.0 0.0 0.00 0.00 0.00 73 1018.8
20260902073734 62 316 0.0 0.0 0.00 0.00 0.00 72 1018.8
20260902073011 62 316 0.0 0.0 0.00 0.00 0.00 70 1018.7
20260902072512 63 316 0.0 3.0 0.00 0.00 0.00 68 1018.7
20260902072012 63 244 0.0 3.0 0.00 0.00 0.00 68 1018.6
20260902072000 63 266 0.0 3.0 0.00 0.00 0.00 68 1018.6
20260902071011 63 259 0.0 3.0 0.00 0.00 0.00 67 1018.5
20260902070512 63 313 1.0 3.0 0.00 0.00 0.00 68 1018.6
20260902070011 63 334 0.0 4.0 0.00 0.00 0.00 68 1018.6
20260902065512 63 295 0.0 4.0 0.00 0.00 0.00 67 1018.6
20260902065012 64 329 0.0 3.0 0.00 0.00 0.00 66 1018.5
20260902064511 64 248 0.0 7.0 0.00 0.00 0.00 66 1018.5
20260902064232 64 1 1.0 7.0 0.00 0.00 0.00 65 1018.4
20260902063732 64 285 2.0 9.0 0.00 0.00 0.00 65 1018.5
20260902063011 64 305 0.0 9.0 0.00 0.00 0.00 65 1018.4
20260902062510 64 296 1.0 4.0 0.00 0.00 0.00 65 1018.5
20260902062012 64 292 1.0 3.0 0.00 0.00 0.00 65 1018.5
20260902061510 64 333 0.0 3.0 0.00 0.00 0.00 64 1018.4
20260902061011 64 290 1.0 2.0 0.00 0.00 0.00 64 1018.5
20260902060509 64 298 0.0 2.0 0.00 0.00 0.00 63 1018.5
20260902060009 65 312 0.0 4.0 0.00 0.00 0.00 63 1018.5
20260902055510 65 293 0.0 4.0 0.00 0.00 0.00 63 1018.5
20260902055234 65 323 3.0 4.0 0.00 0.00 0.00 62 1018.5
20260902054510 66 321 2.0 3.0 0.00 0.00 0.00 59 1018.6
20260902054010 66 329 1.0 4.0 0.00 0.00 0.00 58 1018.6
20260902053513 66 341 0.0 4.0 0.00 0.00 0.00 56 1018.6
20260902053009 66 302 0.0 7.0 0.00 0.00 0.00 56 1018.7
20260902052508 66 282 1.0 7.0 0.00 0.00 0.00 55 1018.7
20260902052018 66 298 0.0 4.0 0.00 0.00 0.00 55 1018.8
20260902051509 67 278 0.0 1.0 0.00 0.00 0.00 54 1018.8
20260902051009 67 275 0.0 2.0 0.00 0.00 0.00 53 1018.7
20260902050734 68 293 0.0 2.0 0.00 0.00 0.00 51 1018.5
20260902050009 68 276 0.0 1.0 0.00 0.00 0.00 50 1018.6
20260902045730 69 255 0.0 1.0 0.00 0.00 0.00 46 1018.6
20260902045009 69 255 0.0 3.0 0.00 0.00 0.00 44 1018.6
20260902044735 70 255 0.0 4.0 0.00 0.00 0.00 42 1018.6
20260902044008 70 255 1.0 6.0 0.00 0.00 0.00 41 1018.5
20260902043508 70 251 2.0 6.0 0.00 0.00 0.00 42 1018.3
20260902043007 69 278 2.0 6.0 0.00 0.00 0.00 42 1018.3
20260902042508 69 282 0.0 2.0 0.00 0.00 0.00 44 1018.2
20260902042007 70 276 0.0 3.0 0.00 0.00 0.00 40 1018.3
20260902041509 70 197 1.0 4.0 0.00 0.00 0.00 39 1018.3
20260902041007 71 161 3.0 4.0 0.00 0.00 0.00 39 1018.3
20260902040508 71 162 2.0 3.0 0.00 0.00 0.00 39 1018.3
20260902040008 71 135 0.0 4.0 0.00 0.00 0.00 38 1018.2
20260902035506 71 168 2.0 4.0 0.00 0.00 0.00 38 1018.4
20260902035006 71 243 1.0 6.0 0.00 0.00 0.00 38 1018.3
20260902034507 72 169 0.0 6.0 0.00 0.00 0.00 38 1018.2
20260902034012 71 117 4.0 6.0 0.00 0.00 0.00 37 1018.0
20260902033736 71 200 0.0 2.0 0.00 0.00 0.00 38 1017.9
20260902033008 72 141 0.0 4.0 0.00 0.00 0.00 38 1017.8
20260902032506 72 164 2.0 11.0 0.00 0.00 0.00 37 1017.7
20260902032010 72 125 3.0 12.0 0.00 0.00 0.00 37 1017.6
20260902031505 72 210 4.0 12.0 0.00 0.00 0.00 36 1017.4
20260902031005 72 169 6.0 11.0 0.00 0.00 0.00 36 1017.4
20260902030511 73 171 6.0 17.0 0.00 0.00 0.00 36 1017.2
20260902030227 73 144 7.0 17.0 0.00 0.00 0.00 36 1017.1
20260902025509 73 130 6.0 12.0 0.00 0.00 0.00 35 1017.0
20260902025005 73 138 6.0 12.0 0.00 0.00 0.00 35 1017.0
20260902024506 73 214 3.0 12.0 0.00 0.00 0.00 35 1017.0
20260902024454 74 144 3.0 10.0 0.00 0.00 0.00 35 1017.0
20260902023504 74 131 4.0 10.0 0.00 0.00 0.00 34 1017.0
20260902023238 74 154 3.0 9.0 0.00 0.00 0.00 34 1017.0
20260902022505 75 124 2.0 10.0 0.00 0.00 0.00 33 1017.0
20260902022005 75 210 4.0 10.0 0.00 0.00 0.00 33 1016.9
20260902021506 76 155 5.0 10.0 0.00 0.00 0.00 32 1016.8
20260902021222 76 206 4.0 13.0 0.00 0.00 0.00 32 1016.7
20260902020504 76 133 6.0 13.0 0.00 0.00 0.00 32 1016.7
20260902020453 76 155 6.0 11.0 0.00 0.00 0.00 31 1016.4
20260902015505 77 127 5.0 11.0 0.00 0.00 0.00 31 1016.4
20260902015004 77 182 3.0 12.0 0.00 0.00 0.00 32 1016.4
20260902014508 78 131 7.0 12.0 0.00 0.00 0.00 32 1016.4
20260902014001 78 99 6.0 11.0 0.00 0.00 0.00 32 1016.5
20260902013505 78 142 4.0 10.0 0.00 0.00 0.00 31 1016.3
20260902013236 79 125 5.0 12.0 0.00 0.00 0.00 31 1016.3
20260902012504 79 110 2.0 12.0 0.00 0.00 0.00 31 1016.3
20260902012003 80 110 5.0 10.0 0.00 0.00 0.00 30 1016.2
20260902011505 80 124 2.0 11.0 0.00 0.00 0.00 30 1016.2
20260902011225 81 69 5.0 12.0 0.00 0.00 0.00 29 1016.1
20260902010727 81 100 6.0 12.0 0.00 0.00 0.00 29 1016.1
20260902010000 81 86 4.0 12.0 0.00 0.00 0.00 29 1016.2
20260902005501 81 102 6.0 15.0 0.00 0.00 0.00 29 1016.1
20260902005004 82 130 7.0 15.0 0.00 0.00 0.00 29 1016.1
20260902004503 82 128 3.0 10.0 0.00 0.00 0.00 29 1016.1
20260902004232 82 107 4.0 10.0 0.00 0.00 0.00 29 1016.1
20260902003722 82 106 3.0 11.0 0.00 0.00 0.00 28 1016.2
20260902003005 82 103 5.0 12.0 0.00 0.00 0.00 28 1016.2
20260902002502 82 127 4.0 12.0 0.00 0.00 0.00 28 1016.2
20260902002003 82 142 6.0 13.0 0.00 0.00 0.00 28 1016.2
20260902001502 82 104 6.0 14.0 0.00 0.00 0.00 28 1016.3
20260902001222 82 127 7.0 14.0 0.00 0.00 0.00 28 1016.4
20260902000502 82 106 3.0 13.0 0.00 0.00 0.00 29 1016.3
20260902000001 82 145 4.0 12.0 0.00 0.00 0.00 28 1016.4
20260901235503 82 118 5.0 15.0 0.00 0.00 0.00 29 1016.4
20260901235001 82 138 7.0 15.0 0.00 0.00 0.00 28 1016.5
20260901234501 81 134 6.0 12.0 0.00 0.00 0.00 28 1016.4
20260901234447 81 121 6.0 12.0 0.00 0.00 0.00 28 1016.5
20260901233725 81 127 6.0 13.0 0.00 0.00 0.00 28 1016.7
20260901232958 81 134 6.0 14.0 0.00 0.00 0.00 28 1016.7
20260901232458 81 125 7.0 14.0 0.00 0.00 0.00 28 1016.7
20260901232001 81 131 6.0 12.0 0.00 0.00 0.00 28 1016.7
20260901231501 81 118 5.0 14.0 0.00 0.00 0.00 28 1016.8
20260901231224 81 104 6.0 14.0 0.00 0.00 0.00 28 1016.8
20260901230500 81 102 5.0 12.0 0.00 0.00 0.00 28 1017.0
20260901225959 81 78 6.0 13.0 0.00 0.00 0.00 28 1017.0
20260901225502 81 82 6.0 13.0 0.00 0.00 0.00 27 1017.0
20260901224959 81 102 6.0 13.0 0.00 0.00 0.00 27 1017.0
20260901224500 81 137 7.0 13.0 0.00 0.00 0.00 27 1016.9
20260901224002 81 152 9.0 13.0 0.00 0.00 0.00 26 1016.9
20260901223500 82 94 4.0 15.0 0.00 0.00 0.00 26 1016.8
20260901223000 82 99 5.0 15.0 0.00 0.00 0.00 26 1016.9
20260901222500 82 100 6.0 11.0 0.00 0.00 0.00 26 1016.9
20260901222224 83 140 6.0 10.0 0.00 0.00 0.00 25 1016.8
20260901221947 83 116 5.0 9.0 0.00 0.00 0.00 25 1016.8
20260901220959 83 107 3.0 10.0 0.00 0.00 0.00 25 1016.8
20260901220458 83 90 3.0 12.0 0.00 0.00 0.00 25 1016.8
20260901215956 84 121 7.0 12.0 0.00 0.00 0.00 24 1016.8
20260901215455 85 113 4.0 13.0 0.00 0.00 0.00 24 1016.8
20260901215000 84 63 5.0 13.0 0.00 0.00 0.00 24 1016.8
20260901214458 85 117 4.0 11.0 0.00 0.00 0.00 24 1016.8
20260901213957 84 73 4.0 9.0 0.00 0.00 0.00 24 1017.0
20260901213458 83 83 4.0 11.0 0.00 0.00 0.00 25 1017.1
20260901212958 83 114 5.0 11.0 0.00 0.00 0.00 24 1017.1
20260901212458 83 83 4.0 9.0 0.00 0.00 0.00 25 1017.2
20260901211958 83 75 4.0 9.0 0.00 0.00 0.00 25 1017.2
20260901211736 84 65 3.0 6.0 0.00 0.00 0.00 25 1017.2
20260901210957 84 113 3.0 7.0 0.00 0.00 0.00 25 1017.2
20260901210458 84 37 4.0 7.0 0.00 0.00 0.00 25 1017.2
20260901205957 84 130 3.0 7.0 0.00 0.00 0.00 26 1017.4
20260901205457 83 135 3.0 11.0 0.00 0.00 0.00 26 1017.4
20260901204957 82 73 2.0 11.0 0.00 0.00 0.00 27 1017.4
20260901204723 82 71 3.0 9.0 0.00 0.00 0.00 27 1017.5